Date String (YYYY-MM-DD hh:mm:ss) UTC,Instrument flags,Ambient pressure (hPa),Sample flow (lpm),Bypass flow (lpm),Sample temperature (°C),Ambient temperature (°C),ASC tube jacket temperature (°C),LED temperature (°C),Box temperature (°C),Sample RH (%),Span deviation,Mass concentration (μg/m³),Mass concentration (μg/m³),Mass concentration (μg/m³)
DateTimeUTC,F1_M11,P_M11,Q1_M11,Q2_M11,T1_M11,T2_M11,T3_M11,T4_M11,T5_M11,U1_M11,ZSPAN_M11,X2_M11,X0_M11,X1_M11
2021-09-13 15:00:00,,0827.7,5.00,0.00,29.9,27.6,00.0,39.3,31.5,25.3,0000.9,0004.83,0013.22,0003.90
2021-09-13 15:01:00,,0827.7,4.99,0.00,29.9,28.0,00.0,39.2,31.5,25.3,0000.8,0004.79,0012.02,0003.89
2021-09-13 15:02:00,,0827.8,5.01,0.00,29.9,28.2,00.0,39.2,31.6,25.2,0000.8,0004.79,0011.57,0003.89
2021-09-13 15:03:00,,0827.9,4.98,0.00,29.9,28.4,00.0,39.2,31.6,25.1,0001.3,0004.86,0012.07,0003.89
2021-09-13 15:04:00,,0827.8,5.01,0.00,30.0,28.5,00.0,39.2,31.7,25.2,0001.7,0004.89,0011.96,0003.88
2021-09-13 15:05:00,,0827.6,4.99,0.00,30.0,28.6,00.0,39.2,31.7,25.3,0001.5,0004.88,0011.31,0003.87
2021-09-13 15:06:00,,0827.8,5.01,0.00,30.0,28.8,00.0,39.2,31.7,25.4,0001.6,0004.89,0011.19,0003.87
2021-09-13 15:07:00,,0828.0,4.99,0.00,30.0,28.9,00.0,39.2,31.8,25.9,0001.7,0004.89,0010.81,0003.88
2021-09-13 15:08:00,,0828.1,5.00,0.00,30.0,28.9,00.0,39.2,31.7,25.6,0001.6,0004.91,0010.72,0003.88
2021-09-13 15:09:00,,0828.1,5.01,0.00,30.0,29.0,00.0,39.2,31.8,26.2,0000.1,0004.99,0011.24,0003.89
2021-09-13 15:10:00,,0827.9,4.98,0.00,30.0,29.0,00.0,39.2,31.7,26.8,0000.0,0004.97,0011.52,0003.89
2021-09-13 15:11:00,,0828.0,5.02,0.00,30.1,29.0,00.0,39.2,31.8,26.6,0000.0,0004.99,0011.70,0003.91
2021-09-13 15:12:00,,0828.3,5.00,0.00,30.1,29.1,00.0,39.2,31.8,26.7,0000.1,0005.02,0011.79,0003.93
2021-09-13 15:13:00,,0828.3,5.00,0.00,30.1,29.1,00.0,39.2,31.8,26.7,0000.8,0005.03,0011.70,0003.96
2021-09-13 15:14:00,,0828.0,5.01,0.00,30.1,29.1,00.0,39.2,31.8,26.8,0001.0,0004.99,0011.41,0003.98
2021-09-13 15:15:00,,0827.9,4.99,0.00,30.1,29.1,00.0,39.2,31.8,26.5,0001.9,0005.04,0011.48,0004.01
2021-09-13 15:16:00,,0827.9,5.02,0.00,30.1,29.1,00.0,39.2,31.8,26.5,0001.4,0005.09,0011.69,0004.03
2021-09-13 15:17:00,,0827.9,5.00,0.00,30.1,29.2,00.0,39.2,31.8,26.6,0001.5,0005.22,0012.41,0004.07
2021-09-13 15:18:00,,0828.0,5.00,0.00,30.1,29.2,00.0,39.2,31.8,26.2,0001.3,0005.28,0012.43,0004.12
2021-09-13 15:19:00,,0828.0,4.99,0.00,30.1,29.2,00.0,39.2,31.8,26.1,0001.2,0005.36,0012.64,0004.17
2021-09-13 15:20:00,,0827.9,5.01,0.00,30.1,29.2,00.0,39.2,31.8,26.2,0001.1,0005.37,0012.18,0004.22
2021-09-13 15:21:00,,0827.8,4.99,0.00,30.1,29.2,00.0,39.2,31.8,26.3,0000.9,0005.42,0012.39,0004.26
2021-09-13 15:22:00,,0827.9,4.99,0.00,30.1,29.2,00.0,39.2,31.9,26.2,0001.4,0005.49,0012.88,0004.31
2021-09-13 15:23:00,,0827.8,5.02,0.00,30.1,29.3,00.0,39.2,31.9,25.7,0001.4,0005.50,0013.28,0004.32
2021-09-13 15:24:00,,0827.9,5.00,0.00,30.1,29.3,00.0,39.2,31.8,25.9,0001.7,0005.50,0014.04,0004.31
2021-09-13 15:25:00,,0828.0,4.99,0.00,30.1,29.3,00.0,39.2,31.9,26.0,0001.7,0005.52,0013.88,0004.34
2021-09-13 15:26:00,,0827.9,5.00,0.00,30.1,29.3,00.0,39.2,31.9,26.0,0001.5,0005.50,0013.97,0004.35
2021-09-13 15:27:00,,0828.0,4.99,0.00,30.1,29.3,00.0,39.2,31.9,25.9,0001.3,0005.53,0014.28,0004.37
2021-09-13 15:28:00,,0827.9,5.01,0.00,30.1,29.3,00.0,39.2,31.9,26.1,0001.4,0005.43,0013.59,0004.37
2021-09-13 15:29:00,,0827.8,5.00,0.00,30.1,29.3,00.0,39.3,31.9,25.6,0001.6,0005.40,0013.30,0004.33
2021-09-13 15:30:00,,0827.8,5.00,0.00,30.1,29.3,00.0,39.3,31.9,25.9,0001.1,0005.41,0013.61,0004.31
2021-09-13 15:31:00,,0827.8,5.00,0.00,30.1,29.4,00.0,39.3,31.9,25.9,0001.2,0005.42,0013.96,0004.30
2021-09-13 15:32:00,,0827.7,5.00,0.00,30.1,29.4,00.0,39.3,31.9,25.6,0001.1,0005.41,0014.04,0004.28
2021-09-13 15:33:00,,0827.7,5.02,0.00,30.1,29.4,00.0,39.3,31.9,26.5,-000.1,0005.35,0013.99,0004.26
2021-09-13 15:34:00,,0827.8,5.00,0.00,30.1,29.4,00.0,39.3,31.9,26.5,-001.3,0005.36,0014.42,0004.25
2021-09-13 15:35:00,,0827.8,5.00,0.00,30.1,29.4,00.0,39.3,31.9,26.6,-001.0,0005.36,0013.76,0004.26
2021-09-13 15:36:00,,0827.9,5.00,0.00,30.1,29.4,00.0,39.3,31.9,26.7,0000.0,0005.39,0013.64,0004.25
2021-09-13 15:37:00,,0828.0,5.00,0.00,30.1,29.4,00.0,39.3,31.9,26.4,0000.0,0005.42,0013.62,0004.23
2021-09-13 15:38:00,,0828.1,5.00,0.00,30.1,29.4,00.0,39.3,31.9,26.2,0000.0,0005.44,0013.55,0004.21
2021-09-13 15:39:00,,0828.1,5.01,0.00,30.1,29.4,00.0,39.3,31.9,26.4,0000.0,0005.44,0013.60,0004.20
2021-09-13 15:40:00,,0828.1,5.00,0.00,30.1,29.4,00.0,39.3,31.9,26.4,0000.0,0005.43,0013.89,0004.21
2021-09-13 15:41:00,,0828.1,5.00,0.00,30.1,29.4,00.0,39.3,31.9,27.0,0000.0,0005.35,0013.91,0004.20
2021-09-13 15:42:00,,0828.1,5.01,0.00,30.1,29.3,00.0,39.3,31.8,26.9,0000.0,0005.28,0013.42,0004.18
2021-09-13 15:43:00,,0828.1,4.99,0.00,30.1,29.3,00.0,39.3,31.8,26.9,0000.0,0005.22,0012.55,0004.18
2021-09-13 15:44:00,,0828.1,4.99,0.00,30.1,29.3,00.0,39.3,31.8,26.9,0000.0,0005.23,0012.07,0004.17
2021-09-13 15:45:00,,0828.1,5.01,0.00,30.1,29.3,00.0,39.3,31.8,26.9,0000.0,0005.28,0011.51,0004.18
2021-09-13 15:46:00,,0828.1,5.00,0.00,30.1,29.3,00.0,39.3,31.8,27.3,0000.0,0005.33,0011.86,0004.20
2021-09-13 15:47:00,,0828.1,5.00,0.00,30.0,29.3,00.0,39.2,31.7,27.1,0000.0,0005.29,0012.90,0004.20
2021-09-13 15:48:00,,0828.1,5.00,0.00,30.0,29.3,00.0,39.2,31.7,27.2,0000.0,0005.26,0012.80,0004.22
2021-09-13 15:49:00,,0828.2,5.00,0.00,30.0,28.6,00.0,39.2,31.6,27.7,0000.0,0005.22,0012.83,0004.23
2021-09-13 15:50:00,,0828.2,5.00,0.00,29.9,26.9,00.0,39.2,31.2,28.1,0000.0,0005.24,0012.93,0004.27
2021-09-13 15:51:00,,0828.3,5.00,0.00,29.8,26.6,00.0,39.1,31.1,28.4,0000.0,0005.26,0012.34,0004.29
2021-09-13 15:52:00,,0828.4,5.00,0.00,29.7,26.9,00.0,39.1,31.2,27.9,0000.0,0005.33,0011.93,0004.32
2021-09-13 15:53:00,,0828.4,5.00,0.00,29.7,27.3,00.0,39.0,31.2,27.5,0000.0,0005.41,0012.32,0004.35
2021-09-13 15:54:00,,0828.3,5.01,0.00,29.7,27.6,00.0,39.0,31.2,27.7,0000.0,0005.49,0012.66,0004.38
2021-09-13 15:55:00,,0828.2,4.99,0.00,29.7,27.8,00.0,39.0,31.3,27.8,0000.4,0005.59,0012.88,0004.42
2021-09-13 15:56:00,,0828.1,5.00,0.00,29.7,28.0,00.0,38.9,31.3,28.2,0000.4,0005.63,0013.19,0004.45
2021-09-13 15:57:00,,0828.1,5.00,0.00,29.7,28.2,00.0,38.9,31.3,28.1,0000.4,0005.66,0013.36,0004.46
2021-09-13 15:58:00,,0828.1,5.01,0.00,29.7,28.4,00.0,38.9,31.3,28.0,0000.8,0005.77,0012.44,0004.48
2021-09-13 15:59:00,,0828.1,4.99,0.00,29.7,28.5,00.0,38.9,31.3,28.0,0000.6,0005.84,0012.49,0004.50
